GFSGBSN_700_temp_057.txt.gz
Temp
1 1 1 1 1 0 0 0 0 0 1 0 0 0 0 0 -0 -0 -1 -1 -1 -0 -0 1 2 3 3 5 6 4 5 5 6 5 5 5 6 6 6 7 6 5 6 6 6 6 6
0 1 1 0 0 0 0 0 0 0 0 0 0 0 0 -0 -1 -1 -1 -2 -2 -2 -1 -0 1 2 3 4 4 4 5 4 4 5 5 5 5 6 6 6 6 6 6 5 6 6 6
-0 -0 0 0 0 0 0 0 0 0 0 0 0 1 0 0 -1 -1 -1 -1 -2 -2 -2 -1 -0 1 1 4 3 3 4 4 4 5 5 4 4 5 6 6 6 6 5 5 6 6 6
-0 -0 0 -0 -0 -0 -0 0 0 0 0 -0 -0 -0 0 0 -0 -0 -1 -1 -1 -1 -1 -1 -0 0 1 2 3 3 4 4 4 5 5 4 4 4 5 5 5 6 5 5 6 6 6
-0 -1 -1 -0 -0 -1 -1 -1 -0 -0 -0 -0 -0 -1 -1 -0 -0 -0 -0 -0 -0 -1 -1 -1 -1 -1 0 2 2 3 4 5 4 4 4 4 4 4 4 5 4 5 5 6 6 6 6
-1 -1 -1 -1 -1 -1 -1 -1 -1 -1 -1 -1 -1 -1 -1 -1 -1 -1 -1 -1 -1 -0 -0 -1 -1 -1 -1 1 1 2 3 4 4 4 3 4 4 3 4 4 4 5 5 6 7 7 6
-1 -1 -1 -1 -1 -1 -1 -1 -1 -1 -1 -1 -1 -1 -1 -1 -1 -1 -2 -1 -1 -1 -0 0 -0 -1 -1 -1 1 2 2 2 3 4 3 4 3 4 5 5 5 6 6 6 6 6 6
-2 -2 -2 -2 -2 -2 -2 -2 -2 -1 -1 -1 -2 -2 -2 -2 -2 -2 -3 -2 -3 -2 1 -0 0 0 -0 -2 0 0 1 2 2 3 3 2 3 5 4 5 4 5 6 5 6 6 6
-2 -2 -2 -2 -2 -2 -2 -2 -2 -2 -2 -2 -2 -2 -2 -2 -2 -3 -3 -3 -4 -4 -3 2 2 2 2 -1 1 2 2 2 2 2 3 3 5 4 4 4 4 4 5 6 5 5 6
-3 -3 -3 -3 -3 -3 -3 -3 -3 -2 -2 -2 -2 -2 -2 -3 -3 -4 -4 -4 -4 -5 -3 1 0 -0 0 0 1 3 1 1 1 2 2 2 3 4 5 4 4 4 5 5 5 4 5
-3 -3 -3 -3 -3 -3 -3 -3 -3 -3 -3 -2 -3 -3 -3 -3 -4 -4 -4 -5 -5 -5 -4 -1 -1 -1 -0 0 1 2 3 2 1 2 2 2 4 3 3 5 4 5 5 5 5 4 4
-4 -4 -4 -4 -4 -4 -4 -4 -4 -4 -3 -3 -3 -4 -3 -3 -4 -5 -5 -6 -6 -6 -4 -1 -2 -2 -1 -0 0 1 2 1 1 1 1 2 3 3 3 4 5 3 4 4 4 3 3
-5 -4 -4 -5 -5 -5 -5 -5 -5 -5 -4 -4 -5 -4 -4 -4 -4 -6 -6 -7 -6 -6 -2 -2 -1 -1 -0 1 1 0 1 1 0 -0 -0 1 2 2 3 3 3 3 4 4 4 3 5
-5 -5 -5 -5 -5 -5 -5 -5 -5 -5 -5 -5 -5 -5 -5 -4 -5 -6 -6 -7 -7 -5 -4 -3 -2 -1 -1 0 0 -0 0 0 -0 1 1 1 2 2 2 3 4 4 3 4 4 4 6
-6 -6 -6 -6 -6 -6 -6 -6 -6 -6 -6 -6 -6 -5 -5 -6 -6 -7 -8 -8 -6 -6 -5 -3 -2 -1 -1 -1 0 0 0 -1 0 1 2 1 2 3 3 3 4 3 2 4 4 2 3
-7 -7 -6 -6 -6 -6 -6 -7 -7 -7 -7 -7 -6 -6 -6 -7 -7 -9 -8 -8 -8 -6 -5 -3 -4 -3 -2 -1 0 0 -0 -1 0 0 1 2 2 3 3 3 2 3 4 3 3 4 4
-8 -7 -7 -7 -7 -7 -7 -7 -7 -7 -8 -9 -8 -8 -7 -8 -8 -9 -9 -8 -8 -7 -6 -4 -4 -4 -3 -2 -2 -1 -1 -1 0 1 1 2 3 2 3 3 3 2 3 4 4 4 4
-9 -8 -8 -8 -8 -8 -8 -8 -8 -8 -9 -10 -10 -9 -9 -8 -9 -9 -9 -8 -8 -7 -6 -6 -4 -5 -4 -3 -3 -2 -2 -1 -1 -0 0 1 2 2 3 3 3 3 3 3 3 3 3
-10 -9 -9 -9 -9 -8 -9 -9 -9 -10 -10 -11 -11 -10 -10 -9 -10 -9 -9 -8 -8 -7 -7 -7 -7 -6 -6 -5 -4 -3 -2 -1 -1 -1 -1 -0 0 1 1 2 3 2 3 3 3 3 3
-11 -11 -10 -10 -9 -9 -9 -9 -10 -11 -11 -12 -11 -11 -10 -10 -9 -9 -9 -9 -8 -7 -7 -7 -7 -7 -6 -6 -5 -4 -3 -2 -2 -1 -2 -1 -1 0 1 0 0 1 2 2 2 2 3
-13 -13 -12 -11 -10 -10 -10 -10 -11 -11 -11 -12 -11 -11 -10 -9 -9 -9 -9 -9 -8 -8 -8 -8 -7 -7 -7 -7 -6 -5 -4 -3 -2 -2 -2 -1 -2 -1 -1 -1 -0 0 1 2 2 2 2
-13 -13 -12 -11 -11 -11 -11 -11 -11 -12 -12 -12 -12 -11 -11 -10 -9 -8 -9 -8 -8 -8 -8 -8 -8 -7 -8 -7 -6 -6 -5 -5 -4 -4 -2 -2 -2 -1 -1 -0 -0 0 1 1 2 2 2
-12 -12 -12 -12 -12 -12 -12 -12 -12 -12 -12 -12 -11 -11 -11 -10 -9 -9 -8 -7 -8 -8 -8 -8 -8 -8 -8 -8 -8 -6 -6 -6 -5 -4 -3 -3 -2 -2 -1 -1 -0 0 1 2 2 2 2
-13 -12 -12 -12 -12 -12 -12 -12 -11 -11 -11 -11 -11 -11 -11 -10 -10 -8 -8 -8 -8 -7 -7 -8 -8 -8 -8 -8 -7 -6 -6 -6 -5 -5 -4 -4 -4 -3 -2 -1 -1 1 1 2 2 2 2
-12 -12 -12 -12 -12 -11 -11 -11 -11 -11 -11 -11 -11 -12 -10 -10 -10 -9 -9 -8 -8 -8 -8 -8 -8 -7 -7 -8 -7 -6 -6 -6 -4 -4 -5 -4 -4 -3 -3 -3 -1 0 1 1 1 1 2
-12 -12 -11 -11 -11 -11 -11 -11 -10 -10 -11 -11 -11 -11 -11 -10 -9 -9 -8 -9 -8 -8 -8 -7 -8 -8 -8 -8 -8 -7 -6 -5 -5 -5 -4 -4 -5 -4 -4 -3 -3 0 0 0 0 1 -0
-11 -11 -11 -11 -11 -11 -10 -10 -10 -10 -11 -11 -11 -11 -11 -11 -10 -9 -9 -9 -9 -8 -8 -8 -8 -8 -8 -8 -8 -7 -6 -5 -5 -5 -5 -5 -5 -5 -4 -4 -3 -2 -2 -1 -1 -1 -1
-10 -10 -10 -10 -10 -10 -10 -10 -10 -10 -10 -11 -11 -11 -10 -10 -10 -9 -9 -9 -9 -8 -8 -8 -8 -8 -8 -8 -8 -7 -6 -6 -5 -5 -4 -4 -5 -5 -4 -4 -4 -2 -2 -2 -2 -1 -1
-10 -10 -10 -10 -10 -9 -9 -10 -10 -10 -10 -10 -10 -10 -10 -10 -10 -10 -9 -9 -9 -8 -8 -8 -7 -7 -7 -7 -7 -7 -6 -6 -5 -5 -4 -4 -4 -3 -3 -2 -2 -2 -2 -2 -2 -1 -0

GFSGBSN_700_temp_063.txt.gz
Temp
0 -0 0 0 1 1 1 1 1 1 2 2 2 1 2 2 2 3 3 3 2 2 3 3 2 2 1 1 3 2 3 3 3 5 4 4 3 4 5 6 7 7 7 8 8 8 8
-0 -0 -0 -0 -0 -0 0 0 0 1 1 2 2 1 1 2 2 2 2 2 2 2 2 3 2 2 1 3 1 1 2 2 2 4 2 2 3 4 5 6 7 7 7 7 8 8 8
-1 -0 -0 -0 -1 -1 -0 -0 0 0 1 1 1 1 1 2 2 2 2 2 2 2 2 2 2 2 2 3 0 -0 1 2 3 2 2 1 3 4 5 5 6 7 7 7 7 8 8
-1 -1 -0 -1 -1 -1 -1 -1 -1 -0 0 0 1 1 1 1 1 1 1 1 2 1 2 2 2 2 3 2 1 1 -0 1 2 2 2 1 1 2 3 5 6 6 6 7 8 8 8
-1 -2 -1 -1 -1 -1 -1 -1 -1 -1 -0 -0 0 1 1 1 1 1 1 1 1 1 2 2 1 2 2 2 1 1 -0 1 1 1 2 1 0 1 2 3 5 6 7 8 9 9 9
-2 -2 -2 -2 -2 -2 -2 -2 -2 -1 -1 -1 -1 0 0 0 1 1 0 1 1 1 2 2 1 1 0 -0 -2 0 -0 0 0 -1 1 1 1 2 2 4 5 8 8 8 10 10 8
-2 -2 -2 -2 -2 -2 -2 -2 -2 -2 -1 -1 -1 -1 -1 -0 -0 0 0 1 -0 -1 1 0 -1 1 -0 -2 -0 -1 -2 -1 -1 -1 -1 1 1 3 4 4 4 6 9 10 9 10 8
-3 -2 -2 -3 -2 -3 -2 -3 -2 -2 -2 -1 -1 -1 -1 -1 -1 -0 -0 0 -0 -0 2 2 1 0 1 -1 0 -0 -1 -2 -1 -2 -2 0 2 3 4 4 4 5 7 8 9 9 7
-3 -3 -3 -3 -3 -3 -3 -3 -3 -2 -2 -2 -2 -2 -2 -2 -2 -1 -1 -1 -1 -1 -0 0 -0 0 0 0 1 -0 -2 -2 -2 -3 -2 -2 2 3 3 4 4 6 6 7 8 9 7
-4 -3 -4 -4 -3 -3 -4 -3 -3 -3 -3 -3 -3 -2 -2 -2 -2 -2 -1 -1 -2 -2 -2 -0 -1 -1 -0 0 -1 -0 -2 -2 -2 -2 -2 -1 1 2 2 3 4 6 6 7 7 7 9
-4 -4 -4 -4 -4 -4 -4 -4 -4 -4 -3 -4 -3 -3 -3 -3 -3 -2 -2 -3 -3 -2 1 -0 -1 -0 -0 -1 -2 -2 -1 -2 -2 -2 -2 -0 2 2 2 3 3 5 6 6 6 7 7
-5 -5 -5 -5 -5 -5 -5 -5 -5 -4 -4 -4 -4 -4 -4 -4 -3 -3 -3 -4 -4 -4 2 -0 -1 -1 -1 -0 -1 -1 -2 -2 -2 -3 -4 -2 0 1 2 3 3 4 5 5 6 6 8
-6 -6 -6 -6 -6 -6 -5 -5 -5 -5 -5 -5 -5 -4 -5 -4 -4 -4 -5 -5 -4 -1 -0 0 -1 -1 -1 0 0 -1 -2 -2 -2 -3 -3 -2 -1 0 2 2 2 4 5 7 7 7 8
-7 -7 -7 -7 -7 -6 -6 -6 -6 -5 -6 -6 -5 -5 -5 -5 -5 -5 -6 -7 -3 -0 -0 -1 -2 -1 0 0 1 -0 -1 -2 -2 -0 -0 0 0 -0 2 2 4 4 5 7 7 8 10
-7 -8 -8 -8 -8 -8 -7 -7 -7 -6 -6 -6 -6 -6 -6 -6 -6 -6 -7 -6 -2 -1 -1 -2 -2 -0 1 0 -0 0 0 0 -0 -1 1 2 3 2 2 2 2 5 4 5 6 6 8
-8 -9 -8 -9 -9 -9 -9 -8 -8 -8 -7 -7 -8 -7 -7 -7 -6 -7 -8 -7 -4 -4 -4 -4 -2 -1 -0 -0 0 1 1 -1 -1 -1 0 1 2 3 2 2 1 3 5 5 6 6 6
-9 -9 -9 -9 -10 -10 -10 -10 -9 -10 -10 -9 -9 -9 -10 -7 -8 -8 -8 -7 -5 -5 -5 -4 -3 -2 -2 -2 -1 -0 -1 -2 -2 -2 -1 1 1 3 3 2 3 2 4 4 6 6 7
-9 -9 -10 -10 -10 -10 -10 -11 -11 -12 -12 -11 -11 -11 -10 -8 -9 -9 -9 -8 -6 -6 -6 -5 -5 -4 -4 -3 -3 -1 -1 -2 -2 -3 -1 -0 1 2 1 3 3 3 4 4 5 4 6
-10 -10 -10 -10 -11 -11 -12 -13 -12 -12 -11 -12 -12 -11 -9 -9 -9 -9 -9 -8 -8 -7 -6 -5 -5 -5 -4 -4 -3 -2 -2 -2 -3 -4 -3 -1 0 2 2 1 3 4 4 3 4 4 3
-10 -11 -11 -12 -12 -13 -13 -13 -13 -12 -12 -12 -12 -11 -11 -9 -9 -8 -8 -8 -7 -7 -7 -6 -5 -5 -4 -4 -4 -3 -3 -2 -3 -4 -5 -3 -1 2 3 4 4 4 4 4 4 4 5
-11 -11 -12 -12 -13 -13 -13 -13 -13 -12 -12 -12 -12 -11 -10 -10 -10 -10 -9 -8 -7 -7 -7 -6 -6 -5 -5 -4 -4 -4 -3 -3 -3 -3 -4 -4 -2 -1 2 2 3 4 3 4 3 3 3
-11 -12 -12 -13 -13 -13 -13 -13 -13 -12 -12 -11 -12 -12 -11 -10 -9 -9 -9 -8 -8 -7 -6 -6 -6 -6 -5 -5 -4 -4 -4 -3 -3 -3 -4 -3 -3 -3 -1 1 1 2 3 4 4 4 4
-12 -12 -12 -13 -13 -13 -13 -13 -13 -12 -12 -11 -11 -11 -11 -11 -10 -9 -9 -9 -8 -7 -7 -7 -7 -6 -6 -6 -6 -6 -6 -6 -6 -5 -5 -4 -3 -3 -3 -1 -0 0 2 2 3 3 4
-12 -12 -12 -12 -13 -14 -13 -13 -13 -13 -12 -12 -12 -12 -12 -11 -10 -9 -9 -8 -8 -8 -7 -6 -7 -6 -6 -6 -6 -7 -7 -7 -6 -5 -5 -5 -3 -2 -2 -2 -2 2 2 2 3 3 3
-12 -11 -11 -11 -12 -13 -13 -13 -13 -13 -12 -12 -12 -12 -12 -12 -11 -10 -9 -9 -8 -8 -8 -7 -7 -7 -7 -7 -7 -7 -6 -6 -6 -5 -5 -5 -4 -3 -2 0 1 2 2 2 2 2 1
-12 -11 -11 -11 -11 -12 -12 -12 -12 -12 -12 -12 -12 -12 -12 -12 -11 -10 -9 -9 -8 -8 -8 -7 -7 -7 -7 -8 -8 -6 -4 -4 -3 -4 -5 -4 -5 -3 -2 -1 1 1 1 0 1 2 0
-11 -11 -11 -10 -11 -11 -12 -12 -12 -12 -12 -12 -11 -12 -12 -12 -10 -11 -10 -9 -9 -8 -8 -8 -7 -8 -8 -8 -7 -6 -4 -4 -3 -3 -4 -4 -4 -4 -2 -1 0 1 -0 -1 1 0 -2
-11 -11 -11 -11 -11 -11 -11 -11 -11 -12 -12 -12 -11 -11 -12 -11 -10 -10 -10 -9 -9 -8 -9 -8 -8 -8 -8 -7 -7 -5 -5 -5 -3 -4 -3 -4 -4 -4 -3 -2 -1 -1 -1 -1 -2 -3 -2
-10 -10 -10 -10 -10 -10 -11 -11 -11 -11 -11 -11 -11 -11 -10 -11 -10 -10 -9 -9 -9 -8 -8 -8 -8 -8 -7 -7 -7 -6 -5 -5 -4 -4 -3 -3 -3 -2 -2 -2 -2 -3 -2 -2 -2 -2 -2

GFSGBSN_700_temp_069.txt.gz
Temp
-1 -0 -0 0 0 1 1 1 1 1 1 1 1 2 2 2 2 2 3 3 3 3 4 4 4 5 5 5 6 3 4 4 5 3 3 3 4 4 4 5 4 4 5 6 6 7 7
-1 -1 -1 -0 -0 -0 0 0 0 0 0 1 1 1 1 1 2 2 2 2 3 3 3 4 4 4 5 6 5 5 5 5 4 3 2 2 3 3 4 4 4 4 5 6 6 7 8
-1 -1 -1 -1 -1 -0 -0 -0 -1 -1 -0 0 0 0 1 1 1 1 2 2 2 2 3 3 3 4 5 4 5 4 4 4 4 3 2 2 1 2 2 3 4 4 5 6 6 6 7
-2 -1 -1 -1 -1 -1 -1 -1 -1 -1 -1 -0 -0 -0 0 1 1 1 1 2 2 2 3 3 3 4 5 5 4 4 3 3 3 2 1 1 2 2 2 3 4 4 5 5 6 6 7
-3 -2 -2 -1 -1 -1 -1 -1 -1 -1 -1 -1 -1 -1 -0 -0 1 1 1 1 1 2 2 3 3 3 4 4 3 3 3 3 2 1 0 1 2 2 2 2 3 4 4 5 6 7 7
-4 -4 -3 -2 -1 -1 -1 -1 -1 -1 -1 -1 -1 -1 -1 -1 -0 0 0 1 1 1 2 2 2 3 3 3 2 1 1 1 1 1 -0 0 1 1 1 2 2 3 4 5 6 7 7
-3 -3 -2 -2 -2 -2 -2 -2 -2 -2 -2 -2 -1 -1 -1 -1 -1 -1 -0 0 -0 -0 1 2 3 4 2 3 2 2 1 -1 -0 0 -0 -0 -0 0 0 1 2 3 4 5 5 6 6
-3 -3 -3 -3 -3 -3 -3 -3 -3 -2 -2 -2 -2 -2 -2 -2 -2 -2 -1 -1 -1 -1 2 2 4 4 4 2 2 2 1 -1 -1 -1 -1 -1 -1 -0 0 0 0 3 2 3 5 6 6
-3 -3 -3 -3 -3 -3 -3 -3 -3 -3 -3 -3 -3 -2 -2 -2 -2 -2 -2 -2 -2 -1 -1 3 3 3 3 2 2 2 1 -1 -1 -1 -1 -1 -1 -1 -1 -1 0 2 3 4 4 5 6
-3 -3 -3 -3 -3 -4 -4 -4 -4 -4 -4 -4 -3 -3 -3 -3 -3 -3 -4 -2 -2 -2 -1 2 2 2 2 0 1 1 1 -0 -1 -1 -1 -1 -1 -2 -3 -2 -0 0 3 4 4 4 4
-3 -3 -3 -3 -3 -4 -4 -5 -5 -4 -4 -4 -4 -4 -4 -3 -3 -4 -4 -3 -3 -2 -5 1 0 1 1 1 0 1 1 -0 -1 -1 -1 -1 -1 -2 -2 -1 -1 0 2 2 3 3 4
-3 -4 -4 -4 -4 -4 -4 -5 -5 -5 -5 -5 -5 -5 -5 -4 -4 -5 -4 -4 -3 -5 -4 1 1 1 0 1 1 1 0 -0 -1 -2 -1 -1 -2 -2 -2 -1 -2 0 0 1 2 3 2
-4 -4 -4 -4 -5 -5 -5 -5 -5 -6 -6 -6 -5 -5 -5 -5 -5 -5 -5 -5 -6 -6 1 1 1 0 1 1 1 1 1 1 -1 -2 -2 -1 -1 -2 -2 -2 -1 -2 -1 0 1 2 2
-4 -5 -5 -5 -6 -6 -6 -6 -6 -6 -7 -7 -6 -6 -6 -6 -6 -7 -6 -7 -6 -2 -0 1 1 0 0 1 2 1 1 1 -0 -1 -1 -1 -1 -1 -1 -2 -1 -1 -1 -0 1 1 4
-4 -5 -5 -6 -7 -7 -7 -8 -7 -7 -7 -8 -7 -7 -6 -7 -7 -7 -8 -9 -6 -2 -1 -0 -0 0 1 2 2 1 1 1 -0 -1 -1 -0 -0 -0 -2 -1 -1 -1 -1 1 -2 -0 -0
-4 -5 -6 -7 -8 -8 -8 -8 -8 -8 -8 -8 -8 -7 -7 -8 -8 -8 -10 -8 -6 -3 -3 -2 -2 -0 1 1 1 1 1 -0 -1 -1 -1 -1 -0 0 0 -1 -1 -1 -1 -2 -2 0 1
-5 -6 -7 -7 -8 -9 -9 -9 -9 -9 -9 -9 -8 -8 -8 -9 -9 -10 -9 -8 -7 -4 -4 -3 -3 -2 -1 -1 0 0 0 -1 -1 -1 -1 -1 -1 -0 0 -1 -0 -1 -2 -2 -1 -0 2
-6 -6 -7 -8 -9 -9 -9 -9 -10 -10 -10 -10 -10 -9 -10 -10 -10 -9 -8 -7 -7 -5 -5 -5 -4 -4 -4 -2 -2 -1 -1 -1 -2 -2 -1 -2 -1 -1 0 1 -0 -0 -0 -1 -1 0 2
-6 -7 -8 -9 -9 -9 -10 -10 -10 -10 -11 -11 -11 -10 -10 -10 -9 -9 -9 -8 -8 -6 -5 -6 -5 -4 -4 -3 -3 -2 -1 -2 -3 -2 -2 -2 -3 -1 0 1 1 -1 -0 -1 -1 -1 -1
-8 -8 -8 -9 -9 -10 -10 -11 -12 -12 -12 -12 -12 -12 -10 -10 -9 -9 -9 -8 -8 -7 -6 -6 -6 -5 -5 -4 -3 -3 -2 -4 -3 -3 -3 -2 -2 -2 -2 -2 -1 -2 -0 -1 -2 -1 -1
-8 -9 -9 -10 -10 -10 -11 -12 -13 -12 -12 -12 -12 -12 -11 -10 -10 -10 -10 -8 -8 -8 -7 -6 -6 -6 -5 -4 -3 -3 -3 -3 -2 -2 -3 -3 -3 -3 -3 -2 -1 -1 -1 -1 -1 -1 -1
-9 -9 -10 -10 -11 -11 -12 -12 -13 -13 -12 -12 -12 -12 -11 -11 -11 -10 -10 -7 -8 -8 -7 -7 -6 -5 -5 -5 -4 -4 -4 -3 -3 -4 -4 -4 -4 -4 -2 -1 -1 -0 1 1 1 -1 -1
-9 -10 -11 -11 -11 -11 -11 -12 -13 -12 -13 -12 -12 -12 -12 -11 -11 -11 -9 -9 -7 -8 -8 -7 -7 -7 -5 -5 -5 -4 -4 -4 -4 -4 -4 -4 -5 -4 -3 -2 -1 -0 1 1 1 -1 -1
-10 -11 -11 -12 -12 -11 -12 -12 -12 -13 -12 -12 -12 -12 -12 -12 -12 -11 -11 -10 -9 -8 -8 -7 -7 -7 -6 -6 -6 -5 -5 -5 -4 -4 -4 -5 -4 -5 -4 -2 -2 1 2 2 0 1 -1
-11 -11 -11 -12 -12 -12 -12 -12 -12 -12 -12 -12 -12 -12 -12 -12 -11 -10 -10 -10 -10 -9 -8 -8 -7 -7 -6 -6 -6 -6 -5 -5 -4 -4 -4 -4 -4 -5 -4 -4 -2 0 1 2 0 -1 -1
-11 -11 -12 -12 -12 -12 -12 -11 -11 -11 -13 -12 -12 -12 -12 -13 -11 -11 -11 -10 -10 -9 -8 -7 -8 -7 -7 -7 -7 -6 -6 -5 -4 -4 -3 -4 -5 -5 -4 -4 -2 -1 0 1 1 -1 -1
-11 -11 -12 -12 -12 -11 -11 -11 -10 -11 -12 -12 -12 -12 -13 -12 -10 -11 -10 -10 -10 -9 -9 -8 -8 -7 -7 -7 -7 -7 -7 -5 -5 -4 -4 -5 -5 -5 -5 -3 -2 -1 -1 -1 -2 -2 -1
-11 -11 -11 -11 -11 -11 -11 -11 -11 -11 -12 -12 -12 -12 -12 -12 -11 -10 -10 -10 -10 -10 -10 -8 -8 -7 -7 -7 -7 -7 -6 -5 -5 -5 -5 -5 -5 -5 -5 -5 -4 -0 -2 -2 -2 -2 -2
-11 -11 -11 -11 -11 -11 -11 -11 -11 -11 -11 -12 -12 -12 -12 -12 -11 -10 -10 -10 -10 -10 -10 -9 -8 -8 -8 -7 -7 -7 -6 -5 -5 -6 -5 -5 -5 -4 -4 -4 -2 -2 -1 -2 -2 -1 -2

GFSGBSN_700_temp_075.txt.gz
Temp
-1 -1 -1 -1 -1 -1 -1 -1 -0 0 0 1 1 1 1 1 1 1 1 2 2 2 2 3 4 4 5 5 5 4 6 6 6 6 5 5 5 3 3 3 4 4 5 5 5 6 5
-2 -2 -2 -2 -2 -2 -1 -1 -1 -0 -0 -0 0 0 0 1 1 1 1 1 2 2 2 3 3 3 4 5 4 5 6 6 5 5 5 4 4 2 2 2 2 4 3 4 4 4 4
-3 -3 -3 -3 -2 -2 -1 -1 -1 -1 -1 -1 -0 -0 -0 0 0 1 1 1 1 1 2 2 3 3 4 4 4 5 5 5 5 4 4 4 3 2 1 2 3 2 2 3 3 4 4
-3 -4 -3 -3 -3 -2 -2 -2 -2 -2 -2 -2 -2 -1 -1 0 0 1 1 1 1 1 1 2 2 3 4 4 4 4 5 5 4 3 3 2 2 1 1 1 1 1 1 2 3 4 4
-4 -4 -4 -3 -3 -3 -3 -3 -3 -2 -2 -2 -2 -1 -1 -1 -0 0 0 0 0 1 1 1 2 2 4 4 4 4 5 4 4 4 3 2 1 0 0 0 0 1 1 2 2 4 4
-5 -4 -4 -4 -3 -3 -3 -3 -2 -3 -3 -2 -2 -2 -1 -1 -0 -0 -0 -0 -0 1 1 1 2 2 3 3 4 4 3 2 2 2 1 2 0 -0 -0 -0 -0 0 1 2 2 3 3
-5 -4 -4 -4 -3 -3 -3 -3 -3 -3 -2 -2 -2 -2 -2 -2 -1 -1 -1 -1 -1 -1 1 1 1 2 2 2 2 3 2 2 2 1 2 1 0 1 1 0 -0 -0 0 1 2 3 3
-5 -4 -4 -4 -3 -3 -3 -3 -3 -2 -2 -2 -2 -2 -2 -2 -2 -2 -2 -2 -2 -2 1 1 1 1 2 2 1 2 1 1 1 1 0 -1 0 1 -0 -1 -1 -1 -0 1 1 2 3
-4 -4 -4 -3 -3 -3 -3 -3 -3 -3 -2 -2 -3 -3 -3 -3 -3 -3 -3 -3 -3 -2 -3 2 2 3 3 3 3 4 0 1 1 0 -1 -1 1 -0 -1 -1 -1 -1 -1 -0 1 2 3
-4 -4 -3 -3 -3 -3 -3 -2 -2 -2 -2 -2 -3 -3 -3 -4 -4 -3 -3 -3 -3 -4 -3 0 1 1 2 2 2 2 1 1 0 -0 -1 -2 -1 -1 -1 -1 -1 -1 -0 -0 -0 1 1
-4 -3 -3 -3 -3 -2 -2 -2 -2 -2 -2 -2 -3 -3 -3 -4 -4 -4 -4 -4 -4 -4 -6 0 -0 -0 -0 0 1 1 0 0 -1 -1 -1 -1 -1 -1 -1 -1 -2 -2 -1 -1 -1 -0 -1
-3 -3 -3 -3 -2 -2 -2 -2 -2 -3 -3 -3 -3 -4 -4 -5 -4 -4 -5 -5 -5 -5 -5 -1 -1 -0 -0 -0 -0 -0 0 -1 -1 -2 -2 -2 -1 -1 -1 -1 -2 -2 -2 -2 -1 -1 -1
-3 -3 -3 -3 -3 -3 -3 -3 -3 -3 -4 -4 -4 -5 -5 -5 -6 -5 -5 -5 -6 -7 -2 -2 -2 -2 -2 -1 -0 -0 -0 -0 -1 -2 -2 -1 -1 -1 -1 -2 -2 -2 -2 -1 -1 -1 -0
-3 -3 -3 -3 -3 -3 -3 -3 -4 -4 -4 -5 -5 -6 -6 -6 -6 -6 -6 -7 -8 -5 -5 -4 -3 -1 -1 -1 -0 -0 -1 -1 -1 -1 -1 -1 -1 -1 -1 -1 -2 -2 -2 -1 -0 -1 0
-4 -3 -3 -3 -3 -3 -3 -4 -4 -4 -5 -6 -7 -7 -7 -7 -6 -7 -7 -8 -6 -6 -5 -4 -3 -2 -2 -2 -2 -1 -1 -1 -0 -1 -1 -1 -1 -1 -1 -2 -2 -2 -2 -2 -2 -2 -2
-4 -3 -3 -4 -4 -4 -4 -4 -5 -6 -6 -7 -7 -8 -8 -7 -7 -8 -8 -8 -7 -7 -6 -6 -6 -5 -5 -4 -3 -2 -1 -1 -1 -1 -1 -1 -1 -1 -1 -2 -3 -2 -2 -2 -2 -1 -1
-4 -4 -4 -4 -4 -4 -5 -5 -6 -7 -7 -8 -8 -9 -8 -8 -8 -9 -9 -8 -8 -8 -8 -7 -7 -7 -7 -7 -5 -3 -2 -2 -2 -1 -1 -2 -2 -2 -2 -2 -1 -2 -2 -2 -2 -1 -0
-4 -4 -5 -5 -5 -5 -5 -6 -7 -8 -8 -9 -9 -9 -9 -9 -10 -10 -9 -9 -10 -9 -9 -9 -9 -8 -8 -7 -6 -5 -4 -4 -3 -2 -2 -3 -2 -2 -1 -1 -1 -1 -1 -2 -2 -2 -1
-5 -5 -5 -5 -5 -6 -6 -7 -8 -9 -9 -9 -10 -10 -10 -11 -11 -11 -10 -11 -11 -10 -10 -9 -10 -8 -7 -7 -7 -6 -5 -4 -3 -3 -4 -4 -3 -2 -1 -1 -1 -2 -2 -2 -2 -2 -2
-6 -6 -5 -6 -6 -7 -7 -8 -9 -9 -10 -11 -11 -11 -11 -12 -11 -11 -11 -11 -11 -10 -10 -10 -9 -9 -8 -7 -7 -7 -5 -5 -5 -4 -3 -3 -3 -3 -3 -3 -3 -3 -2 -2 -2 -2 -2
-6 -6 -6 -6 -6 -7 -8 -9 -9 -10 -12 -12 -13 -13 -12 -12 -12 -11 -11 -11 -11 -10 -10 -9 -9 -9 -8 -8 -7 -7 -6 -6 -5 -4 -4 -3 -3 -3 -3 -2 -3 -3 -3 -3 -2 -1 -2
-6 -6 -7 -7 -8 -9 -9 -9 -10 -12 -13 -13 -13 -13 -13 -12 -12 -12 -12 -11 -11 -11 -11 -9 -9 -8 -8 -7 -7 -7 -6 -5 -5 -4 -4 -4 -4 -4 -4 -3 -3 -3 -3 -2 -2 -2 -2
-7 -7 -7 -8 -9 -9 -9 -10 -11 -12 -13 -13 -13 -13 -13 -13 -13 -13 -12 -12 -11 -11 -10 -10 -9 -9 -8 -7 -7 -6 -6 -5 -5 -5 -4 -4 -4 -4 -4 -4 -3 -3 -1 -2 -2 -1 -0
-7 -7 -8 -8 -9 -10 -10 -12 -12 -13 -13 -12 -12 -13 -13 -13 -13 -12 -12 -12 -11 -10 -10 -10 -9 -9 -8 -8 -7 -7 -6 -5 -5 -5 -5 -5 -5 -5 -5 -4 -5 -2 -2 -1 -1 -0 -0
-7 -8 -8 -9 -10 -10 -11 -12 -13 -13 -13 -12 -12 -12 -13 -13 -13 -12 -12 -12 -11 -10 -10 -10 -9 -8 -8 -8 -7 -7 -6 -5 -5 -5 -5 -4 -4 -5 -5 -5 -4 -2 -2 -2 -2 -1 -1
-8 -8 -9 -10 -10 -11 -11 -11 -12 -12 -12 -12 -12 -12 -13 -13 -13 -12 -12 -12 -11 -10 -10 -9 -8 -8 -8 -7 -7 -7 -6 -6 -5 -5 -5 -5 -5 -6 -5 -5 -6 -2 -2 -3 -3 -2 -1
-8 -9 -9 -10 -10 -11 -11 -12 -12 -12 -12 -12 -12 -11 -12 -13 -12 -12 -12 -12 -11 -11 -11 -10 -9 -8 -8 -8 -7 -7 -6 -6 -5 -5 -5 -5 -5 -6 -6 -6 -5 -3 -2 -3 -3 -2 -2
-9 -9 -10 -10 -11 -11 -12 -12 -12 -11 -12 -12 -11 -11 -11 -12 -12 -12 -12 -11 -11 -11 -11 -11 -9 -9 -8 -8 -7 -7 -7 -6 -6 -6 -6 -6 -6 -6 -6 -6 -6 -4 -3 -4 -3 -2 -2
-9 -10 -10 -10 -11 -11 -11 -11 -11 -11 -11 -11 -11 -11 -11 -12 -12 -12 -11 -11 -11 -11 -12 -11 -11 -10 -10 -9 -8 -7 -7 -7 -6 -6 -6 -6 -6 -6 -6 -6 -5 -4 -4 -3 -3 -3 -2